Portada
METAR-TAF:

METAR-TAF

Aeropuertos :

Helipuerto de Algeciras

Algeciras, España

latitud: 36-07-44N, longitud: 05-26-28W, altitud: 30 m

Observación

El informe se hizo hace 17 minutos, a las 03:30 UTC
Viento 13 kt del este
Temperatura 20°C
Humedad 88%
Presión 1018 hPa
Visibilidad 10 km o más
sin nubes por debajo de 1500 m y sin presencia de cumulonimbus.

METAR: LEAG 200330Z AUTO 08013KT CAVOK 20/18 Q1018

Hora: 05:47 (03:47 UTC)


TAF: falta

Observaciones y pronósticos meteorológicos de más de 4000 aeropuertos (mensajes METAR y TAF).

Los puntos amarillos y rojos representan las estaciones disponibles.

Ponga el ratón en el punto deseado para ver el nombre de la estación.

Haga clic para ver las observaciones y los pronósticos meteorológicos.

Para cambiar el mapa : haga clic en los botones verdes con una cruz de color negro para hacer un zoom, en el botón verde con un guión para alejar o en las flechas verdes para mapas adyacentes.


METAR-TAF: